Weather History for KADM - October, 2012

Change the Weather History Date:

Friday, October 19, 2012

  Actual Average Record
Temperature  
Mean Temperature 58 °F -  
Max Temperature 75 °F 72 °F 89 °F (2005)
Min Temperature 41 °F 52 °F 33 °F (2013)
Degree Days  
Heating Degree Days 7    
Growing Degree Days 8 (Base 50)    
Moisture  
Dew Point 35 °F    
Average Humidity 66    
Maximum Humidity 93    
Minimum Humidity 18    
Precipitation  
Precipitation 0.00 in - - ()
Sea Level Pressure  
Sea Level Pressure 29.95 in    
Wind  
Wind Speed 3 mph (WSW)    
Max Wind Speed 15 mph    
Max Gust Speed 24 mph    
Visibility 10 miles    
Events      
Averages and records for this station are not official NWS values.
T = Trace of Precipitation, MM = Missing Value Source: NWS Daily Summary

Daily Weather History Graph

Daily Weather History Graph

Search for Another Location

Airport or City:

Trip Planner

Search our weather history database for the weather conditions in past years. The results will help you decide how hot, cold, wet, or windy it might be!

Date:

Astronomy

Oct. 19, 2012 Rise Set
Actual Time 7:37 AM CDT 6:48 PM CDT
Civil Twilight 7:11 AM CDT 7:13 PM CDT
Nautical Twilight 6:42 AM CDT 7:42 PM CDT
Astronomical Twilight 6:13 AM CDT 8:11 PM CDT
Moon 12:12 PM CDT (10/19) 10:36 PM CDT (10/19)
Length of Visible Light 12h 01m
Length of Day
11h 11m
Waxing Crescent, 24% of the Moon is Illuminated
Oct 19
Waxing Crescent
Oct 21
First Quarter
Oct 29
Full
Nov 6
Last Quarter
Nov 13
New

Hourly Weather History & Observations

Time (CDT) Temp. Windchill Dew Point Humidity Pressure Visibility Wind Dir Wind Speed Gust Speed Precip Events Conditions
1:15 AM 42.8 °F - 35.6 °F 76% 29.96 in 10.0 mi Calm Calm - N/A   Clear
1:35 AM 48.2 °F - 35.6 °F 62% 29.96 in 10.0 mi Calm Calm - N/A   Clear
1:55 AM 46.4 °F 45.2 °F 35.6 °F 66% 29.96 in 10.0 mi West 3.5 mph - N/A   Clear
2:15 AM 46.4 °F 45.2 °F 35.6 °F 66% 29.96 in 10.0 mi WSW 3.5 mph - N/A   Clear
2:35 AM 46.4 °F 43.5 °F 33.8 °F 62% 29.96 in 10.0 mi WSW 5.8 mph - N/A   Scattered Clouds
2:55 AM 46.4 °F - 35.6 °F 66% 29.96 in 10.0 mi Calm Calm - N/A   Scattered Clouds
3:15 AM 42.8 °F 40.1 °F 37.4 °F 81% 29.96 in 10.0 mi SW 4.6 mph - N/A   Scattered Clouds
3:35 AM 46.4 °F 44.3 °F 35.6 °F 66% 29.96 in 10.0 mi WSW 4.6 mph - N/A   Mostly Cloudy
3:55 AM 44.6 °F - 35.6 °F 71% 29.95 in 10.0 mi Calm Calm - N/A   Overcast
4:15 AM 41.0 °F 35.8 °F 37.4 °F 87% 29.95 in 10.0 mi SW 8.1 mph - N/A   Overcast
4:35 AM 46.4 °F 42.4 °F 35.6 °F 66% 29.96 in 10.0 mi WSW 8.1 mph - N/A   Overcast
4:55 AM 44.6 °F 40.2 °F 35.6 °F 71% 29.96 in 10.0 mi West 8.1 mph - N/A   Overcast
5:15 AM 44.6 °F 43.1 °F 33.8 °F 66% 29.97 in 10.0 mi WNW 3.5 mph - N/A   Overcast
5:35 AM 46.4 °F 43.5 °F 33.8 °F 62% 29.97 in 10.0 mi WNW 5.8 mph - N/A   Mostly Cloudy
5:55 AM 48.2 °F - 32.0 °F 54% 29.97 in 10.0 mi West 5.8 mph - N/A   Mostly Cloudy
6:15 AM 42.8 °F - 33.8 °F 70% 29.97 in 10.0 mi Calm Calm - N/A   Scattered Clouds
6:35 AM 42.8 °F 40.1 °F 33.8 °F 70% 29.97 in 10.0 mi SSW 4.6 mph - N/A   Scattered Clouds
6:55 AM 44.6 °F - 32.0 °F 61% 29.97 in 10.0 mi Calm Calm - N/A   Clear
9:55 AM 59.0 °F - 30.2 °F 34% 30.01 in 10.0 mi NW 5.8 mph - N/A   Clear
3:55 PM 75.2 °F - 28.4 °F 18% 29.90 in 10.0 mi WNW 15.0 mph 24.2 mph N/A   Clear
11:35 PM 46.4 °F - 42.8 °F 87% 29.88 in 10.0 mi Calm Calm - N/A   Clear
11:55 PM 44.6 °F - 42.8 °F 93% 29.88 in 10.0 mi Calm Calm - N/A   Clear